Weather History for Calgary Springbank AB, Alberta

Change the Weather History Date:

Saturday, July 6, 2013

  Actual Average Record
Temperature  
Mean Temperature 53 °F -  
Max Temperature 60 °F 70 °F - ()
Min Temperature 46 °F 44 °F - ()
Degree Days  
Heating Degree Days 12    
Growing Degree Days 3 (Base 50)    
Moisture  
Dew Point 46 °F    
Average Humidity 78    
Maximum Humidity 94    
Minimum Humidity 51    
Precipitation  
Precipitation 0.04 in - - ()
Sea Level Pressure  
Sea Level Pressure 30.04 in    
Wind  
Wind Speed 6 mph ()    
Max Wind Speed 20 mph    
Max Gust Speed 29 mph    
Visibility 18.9 miles    
Events Rain , Thunderstorm    
T = Trace of Precipitation, MM = Missing Value Source: Averaged Metar Reports

Daily Weather History Graph

Daily Weather History Graph

Search for Another Location

Airport:

Trip Planner

Search our weather history database for the weather conditions in past years. The results will help you decide how hot, cold, wet, or windy it might be!

Date:

Astronomy

Jul. 06, 2013 Rise Set
Actual Time 5:31 AM MDT 9:53 PM MDT
Civil Twilight 4:45 AM MDT 10:38 PM MDT
Nautical Twilight 3:37 AM MDT 11:45 PM MDT
Astronomical Twilight 2:14 AM MDT 1:09 AM MDT
Moon 4:27 AM MDT (7/6) 8:30 PM MDT (7/6)
Length of Visible Light 17h 53m
Length of Day
16h 22m
Waning Crescent, 2% of the Moon is Illuminated
Jul 6
Waning Crescent
Jul 8
New
Jul 15
First Quarter
Jul 22
Full
Jul 29
Last Quarter

Hourly Weather History & Observations

Time (MDT) Temp. Windchill Dew Point Humidity Pressure Visibility Wind Dir Wind Speed Gust Speed Precip Events Conditions
5:00 AM 48.2 °F - 46.4 °F 93% 30.05 in 15.0 mi NW 8.1 mph - N/A   Overcast
7:00 AM 50.0 °F - 46.4 °F 87% 30.06 in 15.0 mi NNW 5.8 mph - N/A   Overcast
8:00 AM 50.0 °F - 48.2 °F 94% 30.06 in 30.0 mi NW 4.6 mph - N/A   Overcast
9:00 AM 51.8 °F - 48.2 °F 88% 30.06 in 30.0 mi NE 3.5 mph - N/A   Overcast
9:13 AM 53.6 °F - 48.2 °F 82% 30.05 in 30.0 mi NE 4.6 mph - N/A   Overcast
10:00 AM 53.6 °F - 48.2 °F 82% 30.05 in 30.0 mi Calm Calm - N/A   Overcast
11:00 AM 53.6 °F - 48.2 °F 82% 30.04 in 30.0 mi East 2.3 mph - N/A   Overcast
12:00 PM 54 °F - 48 °F 73% 30.04 in 28 mi ESE 5.8 mph - -   Overcast
12:00 PM 53.6 °F - 48.2 °F 82% 30.04 in 30.0 mi SE 6.9 mph - N/A   Overcast
12:11 PM 53.6 °F - 48.2 °F 82% 30.04 in 20.0 mi ESE 8.1 mph - N/A Rain Light Rain
12:58 PM 55.4 °F - 51.8 °F 88% 30.01 in 25.0 mi ESE 13.8 mph - N/A   Mostly Cloudy
1:00 PM 55.4 °F - 51.8 °F 88% 30.01 in 25.0 mi ESE 12.7 mph - N/A   Mostly Cloudy
2:00 PM 59.0 °F - 51.8 °F 77% 30.00 in 20.0 mi ESE 8.1 mph - N/A   Mostly Cloudy
3:00 PM 59.0 °F - 48.2 °F 67% 30.00 in 20.0 mi East 8.1 mph - N/A   Mostly Cloudy
3:26 PM 59.0 °F - 48.2 °F 67% 30.02 in 20.0 mi Calm Calm - N/A   Overcast
4:00 PM 48.2 °F - 41.0 °F 76% 30.09 in 20.0 mi North 19.6 mph 28.8 mph N/A   Overcast
4:15 PM 46.4 °F 39.2 °F 42.8 °F 87% 30.09 in 20.0 mi North 18.4 mph 26.5 mph N/A Rain , Thunderstorm Light Thunderstorms and Rain
4:48 PM 50.0 °F - 44.6 °F 82% 30.06 in 20.0 mi NNE 9.2 mph - N/A   Mostly Cloudy
5:00 PM 48.2 °F - 44.6 °F 87% 30.07 in 30.0 mi ENE 4.6 mph - N/A   Mostly Cloudy
6:00 PM 56 °F - 43 °F 51% 30.04 in 28 mi North 4.6 mph - -   Partly Cloudy
6:00 PM 55.4 °F - 42.8 °F 63% 30.04 in 30.0 mi NNW 8.1 mph - N/A   Scattered Clouds
7:00 PM 55.4 °F - 42.8 °F 63% 30.04 in 30.0 mi NNE 4.6 mph - N/A   Partly Cloudy
8:00 PM 57.2 °F - 44.6 °F 63% 30.04 in 30.0 mi NNW 4.6 mph - N/A   Partly Cloudy
9:00 PM 53.6 °F - 42.8 °F 67% 30.05 in 30.0 mi North 6.9 mph - N/A   Partly Cloudy
10:00 PM 46.4 °F 42.4 °F 42.8 °F 87% 30.07 in 30.0 mi North 8.1 mph - N/A   Partly Cloudy